Regional Weather Roundup
Issued by NWS

Home | Current Version | Previous Version | Text Only | Print | Product List | Glossary Off
Versions: 1 2 3 4 5 6 7 8 9 10 11 12 13 14 15 16 17 18 19 20 21 22 23 24 25 26 27 28 29 30 31 32 33 34 35 36 37 38 39 40 41 42 43 44 45 46 47 48 49 50

000
ASUS43 KDTX 180810
RWRMI
MICHIGAN HOURLY REGIONAL WEATHER ROUNDUP
NATIONAL WEATHER SERVICE DETROIT/PONTIAC MI
300 AM EST THU JAN 18 2018

NOTE: "FAIR" INDICATES FEW OR NO CLOUDS BELOW 12,000 FEET WITH NO
SIGNIFICANT WEATHER AND/OR OBSTRUCTION TO VISIBILITY.

MIZ047>049-052>055-059>063-066>070-074>076-081>083-180900-
SOUTHEAST LOWER MICHIGAN

CITY           SKY/WX    TMP DP  RH WIND       PRES   REMARKS
ADRIAN         FAIR      12   6  77 SW12      30.15F WCI  -2
ALMA           FAIR      24  17  76 SW15G21   30.02S WCI  11
ANN ARBOR      FAIR      15   7  70 SW12      30.10F WCI   2
BAD AXE        FAIR      19  13  79 SW14G20   29.99S WCI   5
CARO           FAIR      19  13  80 SW14G20   30.00F WCI   5
DETROIT CITY   FAIR      15   6  67 W16       30.10S WCI  -1
DETROIT        CLOUDY    14   6  70 SW20      30.12F WCI  -3
FLINT          CLOUDY    17   9  70 SW13      30.05F WCI   4
GROSSE ILE     FAIR      15   8  73 SW14G22   30.12F WCI   0
HILLSDALE      FAIR      14   9  79 SW14G24   30.09F WCI  -1
HOWELL         FAIR      15  10  80 SW10G17   30.06S WCI   3

CITY           SKY/WX    TMP DP  RH WIND       PRES   REMARKS
JACKSON        FAIR      14   7  73 SW18G26   30.08F WCI  -3
LAMBERTVILLE   FAIR      14   7  76 W14       30.17F WCI  -1
LANSING        FAIR      16  11  80 SW17      30.06F WCI   0
LAPEER         CLOUDY    18  10  73 W13G20    30.04R WCI   4
MASON          FAIR      17   9  68 SW12G20   30.07F WCI   5
MONROE         FAIR      14   6  70 SW17G25   30.14F WCI  -3
MT. CLEMENS    FAIR     N/A N/A N/A SW12        N/A
PONTIAC        FAIR      15   8  73 SW15      30.04S WCI   0
PORT HOPE        N/A     19  13  77 SW12G21   29.97S WCI   7
PORT HURON     FAIR      18   5  57 SW3       30.07R
TRI CITIES     FAIR      22  17  81 SW14      30.01S WCI   9
MIDLAND        FAIR      24  17  74 SW10      29.99S WCI  14
TROY           FAIR      18   9  65 SW10G21   30.10R WCI   7
SAGINAW HB     FAIR      19  14  79 SW12      30.01F WCI   7
$$
MIZ043>046-050>051-056>058-064>065-071>073-077>080-180900-
SOUTHWEST LOWER MICHIGAN

CITY           SKY/WX    TMP DP  RH WIND       PRES   REMARKS
BATTLE CREEK   FAIR      14   8  77 SW16      30.10S WCI  -2
BENTON HARBOR  FAIR      22  14  71 SW21G28   30.18S WCI   6
BIG RAPIDS     FAIR      22  15  74 W10       29.97F WCI  11
COLDWATER      FAIR      14   9  78 SW13      30.13F WCI   0
FREMONT        FAIR      23  14  67 SW9       30.03F WCI  13
HOLLAND        FAIR      25  17  72 W24G32    30.11S WCI   9
GRAND RAPIDS   MOCLDY    23  16  74 W21       30.07S WCI   8
IONIA          CLOUDY    22  17  79 W22G28    30.04S WCI   7
KALAMAZOO      FAIR      15   8  73 SW14      30.13S WCI   0
LUDINGTON      FAIR      26  17  70 W13G20    30.00F WCI  15
MARSHALL       FAIR      15   8  73 SW14G21   30.10F WCI   0
MOUNT PLEASANT FAIR      25  16  69 W15G23    29.99S WCI  12
MUSKEGON       FAIR      26  16  65 SW20G26   30.07F WCI  12
SOUTH HAVEN    FAIR      26  17  68 W21G31    30.14F WCI  11
$$
MIZ016>042-180900-
NORTHERN LOWER MICHIGAN

CITY           SKY/WX    TMP DP  RH WIND       PRES   REMARKS
ALPENA         FAIR      21  15  78 SW7       29.90R WCI  12
BEAVER ISLAND  FAIR      28  17  64 W15G22    29.86F WCI  16
BELLAIRE       FAIR      26  20  76 SW7       29.92S WCI  19
CADILLAC       FAIR      20  15  79 SW8       29.91F WCI  10
CHARLEVOIX     FAIR      28  19  69 SW15G24   29.91S WCI  16
FRANKFORT      FAIR      28  18  66 W14G22    29.96S WCI  17
GAYLORD        FAIR      20  16  84 W13       29.85S WCI   7
GRAYLING       FAIR      22  14  72 W9G16     29.89S WCI  11
HARBOR SPRINGS MOCLDY    28  20  72 SW14G22   29.87S WCI  17
HOUGHTON LAKE  FAIR      20  14  77 W10G21    29.92R WCI   9
MANISTEE       FAIR      26  18  71 W18G30    29.98S WCI  13
OSCODA         FAIR      17  10  74 SW9       29.94S WCI   6
PELLSTON       FAIR      27  17  66 W8        29.86S WCI  19
ROGERS CITY    FAIR      23  16  75 SW9       29.88R WCI  13
TRAVERSE CITY  FAIR      26  16  65 SW8G17    29.92S WCI  18
$$
MIZ007>008-015-180900-
EASTERN UPPER MICHIGAN

CITY           SKY/WX    TMP DP  RH WIND       PRES   REMARKS
KINROSS        CLOUDY    23  15  71 W9        29.81F WCI  13
MACKINAC ISLAN FAIR      26  19  72 W10G21    29.84S WCI  16
NEWBERRY       CLOUDY    18  10  71 SW12      29.82R WCI   5
S. S. MARIE    CLOUDY    24  13  62 SW6       29.79F WCI  17
MUNISING         N/A     17  10  74 SW10      29.84R WCI   5
$$
MIZ004>006-011>014-085-180900-
CENTRAL UPPER MICHIGAN

CITY           SKY/WX    TMP DP  RH WIND       PRES   REMARKS
MANISTIQUE     FAIR      20  10  66 SW6       29.86R WCI  12
ESCANABA       FAIR      12   7  80 W5        29.89R WCI   4
MENOMINEE      FAIR      19  12  74 SW7       29.93R WCI  10
SAWYER-GWINN   FAIR      17  10  75 W6        29.82S WCI   8
$$
MIZ001>003-009>011-084-180900-
WESTERN UPPER MICHIGAN

CITY           SKY/WX    TMP DP  RH WIND       PRES   REMARKS
IRON MOUNTAIN  FAIR      21  13  71 W10       29.84R WCI  10
HOUGHTON       FAIR      26  18  71 W16       29.77S WCI  14
COPPER HARBOR    N/A     31  22  69 VRB7G18   29.78R WCI  24
IRONWOOD       FAIR      20  15  81 SW10      29.85F WCI   9
$$

ABBREVIATIONS USED IN REMARKS
   TC - TEMPERATURE IN CELSIUS
  WCI - WIND CHILL INDEX
   HX - HEAT INDEX
  VSB - VISIBILITY





USA.gov is the U.S. government's official web portal to all federal, state and local government web resources and services.